Погода в Роскошном

Россия / Белгородская область     51°12′18″N   37°20′12″E
темп.,
°C
ветер,
м/с
пор.,
м/с
влажн.,
%
обл.,
%
осадки,
мм/ч
давл.,
гПа
погр.,
м
12 апреля, пн
пн1200:00+7св51263100 0.0 1027380
03:00+7св61172100 0.0 1026411
06:00+6всв51188100 0.0 1026309
09:00+8всв61089100 0.1 1025372
12:00+17в8115790 0.0 1022774
15:00+21вюв810385 0.0 10211266
18:00+19вюв6114410 0.0 1021379
21:00+15вюв6145699 0.0 1023290
13 апреля, вт
вт1300:00+12вюв4970100 0.0 1023160
03:00+10вюв4107578 0.0 1023192
06:00+9вюв41078100 0.0 1024179
09:00+14юв6116284 0.0 1023495
12:00+17юв7104299 0.0 10231057
15:00+19юв711405 0.0 10221787
18:00+18ююв585256 0.0 1021519
21:00+15юв4106099 0.0 1021306
14 апреля, ср
ср1400:00+12ююв3478100 0.0 102151
03:00+10вюв228542 0.0 102019
06:00+9вюв228398 0.0 102027
09:00+13вюв585131 0.0 1019415
12:00+17юв6939100 0.0 10181354
15:00+16ююв6124996 0.0 10172033
18:00+14ююз5968100 0.1 1017469
21:00+11зюз2379100 0.3 101747
15 апреля, чт
чт1500:00+10юв2280100 0.0 101713
03:00+10в2280100 0.0 101618
06:00+10св3582100 0.1 101695
09:00+13всв2369100 0.1 1016180
12:00+15ююв2352100 0.1 10151339
15:00+17юв2347100 0.8 10131410
18:00+14ююз116394 0.4 1013114
21:00+12юв227064 0.4 101325
16 апреля, пт
пт1600:00+10ююз337895 0.0 101331
03:00+10ююз3489100 0.7 1013148
06:00+9ю248819 1.3 1013142
09:00+12ююв577419 1.3 1014676
12:00+14ю675591 0.3 10151671
15:00+14ю565312 0.3 10151539
18:00+13ююз555994 0.0 1016863
21:00+10юз4669100 0.0 1018415